Year,Month,Day,Hour,Minute,Value (Times are PST for temperature in C)
2015,06,25,00,00,15.00
2015,06,25,00,01,15.00
2015,06,25,00,02,15.00
2015,06,25,00,03,15.00
2015,06,25,00,04,15.00
2015,06,25,00,05,15.00
2015,06,25,00,06,15.00
2015,06,25,00,07,15.00
2015,06,25,00,08,15.00
2015,06,25,00,09,15.00
2015,06,25,00,10,15.00
2015,06,25,00,11,15.00
2015,06,25,00,12,15.00
2015,06,25,00,13,15.00
2015,06,25,00,14,15.00
2015,06,25,00,15,15.00
2015,06,25,00,16,14.90
2015,06,25,00,17,14.90
2015,06,25,00,18,14.90
2015,06,25,00,19,14.90
2015,06,25,00,20,14.90
2015,06,25,00,21,14.90
2015,06,25,00,22,14.90
2015,06,25,00,23,14.90
2015,06,25,00,24,14.90
2015,06,25,00,25,14.90
2015,06,25,00,26,14.90
2015,06,25,00,27,14.90
2015,06,25,00,28,14.90
2015,06,25,00,29,14.90
2015,06,25,00,30,14.90
2015,06,25,00,31,14.90
2015,06,25,00,32,14.90
2015,06,25,00,33,14.90
2015,06,25,00,34,14.90
2015,06,25,00,35,14.90
2015,06,25,00,36,14.90
2015,06,25,00,37,14.90
2015,06,25,00,38,14.90
2015,06,25,00,39,14.90
2015,06,25,00,40,14.90
2015,06,25,00,41,14.90
2015,06,25,00,42,14.90
2015,06,25,00,43,14.90
2015,06,25,00,44,14.90
2015,06,25,00,45,14.90
2015,06,25,00,46,14.90
2015,06,25,00,47,14.90
2015,06,25,00,48,14.90
2015,06,25,00,49,14.90
2015,06,25,00,50,14.90
2015,06,25,00,51,14.90
2015,06,25,00,52,14.90
2015,06,25,00,53,14.90
2015,06,25,00,54,14.90
2015,06,25,00,55,14.90
2015,06,25,00,56,14.90
2015,06,25,00,57,14.80
2015,06,25,00,58,14.80
2015,06,25,00,59,14.80
2015,06,25,01,00,14.80
2015,06,25,01,01,14.80
2015,06,25,01,02,14.80
2015,06,25,01,03,14.80
2015,06,25,01,04,14.80
2015,06,25,01,05,14.80
2015,06,25,01,06,14.70
2015,06,25,01,07,14.70
2015,06,25,01,08,14.70
2015,06,25,01,09,14.70
2015,06,25,01,10,14.70
2015,06,25,01,11,14.70
2015,06,25,01,12,14.70
2015,06,25,01,13,14.60
2015,06,25,01,14,14.60
2015,06,25,01,15,14.60
2015,06,25,01,16,14.60
2015,06,25,01,17,14.60
2015,06,25,01,18,14.60
2015,06,25,01,19,14.60
2015,06,25,01,20,14.50
2015,06,25,01,21,14.50
2015,06,25,01,22,14.40
2015,06,25,01,23,14.40
2015,06,25,01,24,14.30
2015,06,25,01,25,14.30
2015,06,25,01,26,14.30
2015,06,25,01,27,14.30
2015,06,25,01,28,14.30
2015,06,25,01,29,14.30
2015,06,25,01,30,14.30
2015,06,25,01,31,14.20
2015,06,25,01,32,14.20
2015,06,25,01,33,14.20
2015,06,25,01,34,14.20
2015,06,25,01,35,14.30
2015,06,25,01,36,14.30
2015,06,25,01,37,14.30
2015,06,25,01,38,14.30
2015,06,25,01,39,14.30
2015,06,25,01,40,14.30
2015,06,25,01,41,14.30
2015,06,25,01,42,14.30
2015,06,25,01,43,14.30
2015,06,25,01,44,14.30
2015,06,25,01,45,14.30
2015,06,25,01,46,14.30
2015,06,25,01,47,14.30
2015,06,25,01,48,14.30
2015,06,25,01,49,14.40
2015,06,25,01,50,14.40
2015,06,25,01,51,14.40
2015,06,25,01,52,14.40
2015,06,25,01,53,14.40
2015,06,25,01,54,14.40
2015,06,25,01,55,14.30
2015,06,25,01,56,14.30
2015,06,25,01,57,14.30
2015,06,25,01,58,14.30
2015,06,25,01,59,14.30
2015,06,25,02,00,14.30
2015,06,25,02,01,14.30
2015,06,25,02,02,14.30
2015,06,25,02,03,14.30
2015,06,25,02,04,14.30
2015,06,25,02,05,14.30
2015,06,25,02,06,14.20
2015,06,25,02,07,14.20
2015,06,25,02,08,14.20
2015,06,25,02,09,14.20
2015,06,25,02,10,14.20
2015,06,25,02,11,14.20
2015,06,25,02,12,14.20
2015,06,25,02,13,14.20
2015,06,25,02,14,14.10
2015,06,25,02,15,14.10
2015,06,25,02,16,14.10
2015,06,25,02,17,14.10
2015,06,25,02,18,14.10
2015,06,25,02,19,14.10
2015,06,25,02,20,14.10
2015,06,25,02,21,14.10
2015,06,25,02,22,14.10
2015,06,25,02,23,14.10
2015,06,25,02,24,14.10
2015,06,25,02,25,14.00
2015,06,25,02,26,14.00
2015,06,25,02,27,14.00
2015,06,25,02,28,14.00
2015,06,25,02,29,14.00
2015,06,25,02,30,13.90
2015,06,25,02,31,13.90
2015,06,25,02,32,13.90
2015,06,25,02,33,13.90
2015,06,25,02,34,13.90
2015,06,25,02,35,13.90
2015,06,25,02,36,13.90
2015,06,25,02,37,13.90
2015,06,25,02,38,13.90
2015,06,25,02,39,13.90
2015,06,25,02,40,13.90
2015,06,25,02,41,13.90
2015,06,25,02,42,13.90
2015,06,25,02,43,13.90
2015,06,25,02,44,13.80
2015,06,25,02,45,13.80
2015,06,25,02,46,13.80
2015,06,25,02,47,13.80
2015,06,25,02,48,13.80
2015,06,25,02,49,13.80
2015,06,25,02,50,13.80
2015,06,25,02,51,13.80
2015,06,25,02,52,13.80
2015,06,25,02,53,13.80
2015,06,25,02,54,13.70
2015,06,25,02,55,13.70
2015,06,25,02,56,13.70
2015,06,25,02,57,13.70
2015,06,25,02,58,13.70
2015,06,25,02,59,13.70
2015,06,25,03,00,13.70
2015,06,25,03,01,13.70
2015,06,25,03,02,13.70
2015,06,25,03,06,13.70
2015,06,25,03,07,13.70
2015,06,25,03,08,13.70
2015,06,25,03,09,13.70
2015,06,25,03,10,13.70
2015,06,25,03,11,13.60
2015,06,25,03,12,13.60
2015,06,25,03,13,13.60
2015,06,25,03,14,13.60
2015,06,25,03,15,13.60
2015,06,25,03,16,13.60
2015,06,25,03,17,13.60
2015,06,25,03,18,13.60
2015,06,25,03,19,13.60
2015,06,25,03,20,13.60
2015,06,25,03,21,13.60
2015,06,25,03,22,13.60
2015,06,25,03,23,13.60
2015,06,25,03,24,13.70
2015,06,25,03,25,13.70
2015,06,25,03,26,13.70
2015,06,25,03,27,13.70
2015,06,25,03,28,13.70
2015,06,25,03,29,13.70
2015,06,25,03,30,13.70
2015,06,25,03,31,13.70
2015,06,25,03,32,13.70
2015,06,25,03,33,13.70
2015,06,25,03,34,13.70
2015,06,25,03,35,13.70
2015,06,25,03,36,13.70
2015,06,25,03,37,13.80
2015,06,25,03,38,13.80
2015,06,25,03,39,13.80
2015,06,25,03,40,13.80
2015,06,25,03,41,13.80
2015,06,25,03,42,13.80
2015,06,25,03,43,13.80
2015,06,25,03,44,13.80
2015,06,25,03,45,13.80
2015,06,25,03,46,13.80
2015,06,25,03,47,13.80
2015,06,25,03,48,13.80
2015,06,25,03,49,13.80
2015,06,25,03,50,13.70
2015,06,25,03,51,13.70
2015,06,25,03,52,13.70
2015,06,25,03,53,13.70
2015,06,25,03,54,13.70
2015,06,25,03,55,13.70
2015,06,25,03,56,13.70
2015,06,25,03,57,13.70
2015,06,25,03,58,13.70
2015,06,25,03,59,13.70
2015,06,25,04,00,13.70
2015,06,25,04,01,13.70
2015,06,25,04,02,13.70
2015,06,25,04,03,13.70
2015,06,25,04,04,13.70
2015,06,25,04,05,13.70
2015,06,25,04,06,13.60
2015,06,25,04,07,13.60
2015,06,25,04,08,13.60
2015,06,25,04,09,13.60
2015,06,25,04,10,13.60
2015,06,25,04,11,13.60
2015,06,25,04,12,13.60
2015,06,25,04,13,13.60
2015,06,25,04,14,13.60
2015,06,25,04,15,13.60
2015,06,25,04,16,13.60
2015,06,25,04,17,13.60
2015,06,25,04,18,13.60
2015,06,25,04,19,13.60
2015,06,25,04,20,13.70
2015,06,25,04,21,13.70
2015,06,25,04,22,13.70
2015,06,25,04,23,13.70
2015,06,25,04,24,13.70
2015,06,25,04,25,13.70
2015,06,25,04,26,13.70
2015,06,25,04,27,13.70
2015,06,25,04,28,13.70
2015,06,25,04,29,13.70
2015,06,25,04,30,13.80
2015,06,25,04,31,13.80
2015,06,25,04,32,13.80
2015,06,25,04,33,13.80
2015,06,25,04,34,13.80
2015,06,25,04,35,13.80
2015,06,25,04,36,13.80
2015,06,25,04,37,13.80
2015,06,25,04,38,13.80
2015,06,25,04,39,13.80
2015,06,25,04,40,13.80
2015,06,25,04,41,13.80
2015,06,25,04,42,13.80
2015,06,25,04,43,13.80
2015,06,25,04,44,13.80
2015,06,25,04,45,13.80
2015,06,25,04,46,13.80
2015,06,25,04,47,13.80
2015,06,25,04,48,13.80
2015,06,25,04,49,13.80
2015,06,25,04,50,13.80
2015,06,25,04,51,13.80
2015,06,25,04,52,13.80
2015,06,25,04,53,13.90
2015,06,25,04,54,13.90
2015,06,25,04,55,13.90
2015,06,25,04,56,13.90
2015,06,25,04,57,13.90
2015,06,25,04,58,13.90
2015,06,25,04,59,13.90
2015,06,25,05,00,13.90
2015,06,25,05,01,14.00
2015,06,25,05,02,14.00
2015,06,25,05,03,14.00
2015,06,25,05,04,14.00
2015,06,25,05,05,14.00
2015,06,25,05,06,14.00
2015,06,25,05,07,14.10
2015,06,25,05,08,14.10
2015,06,25,05,09,14.10
2015,06,25,05,10,14.10
2015,06,25,05,11,14.10
2015,06,25,05,12,14.10
2015,06,25,05,13,14.10
2015,06,25,05,14,14.20
2015,06,25,05,15,14.20
2015,06,25,05,16,14.20
2015,06,25,05,17,14.20
2015,06,25,05,18,14.20
2015,06,25,05,19,14.20
2015,06,25,05,20,14.20
2015,06,25,05,21,14.30
2015,06,25,05,22,14.30
2015,06,25,05,23,14.30
2015,06,25,05,24,14.30
2015,06,25,05,25,14.30
2015,06,25,05,26,14.30
2015,06,25,05,27,14.30
2015,06,25,05,28,14.30
2015,06,25,05,29,14.30
2015,06,25,05,30,14.40
2015,06,25,05,31,14.40
2015,06,25,05,32,14.40
2015,06,25,05,33,14.40
2015,06,25,05,34,14.40
2015,06,25,05,35,14.40
2015,06,25,05,36,14.40
2015,06,25,05,37,14.40
2015,06,25,05,38,14.40
2015,06,25,05,39,14.40
2015,06,25,05,40,14.40
2015,06,25,05,41,14.40
2015,06,25,05,42,14.40
2015,06,25,05,43,14.40
2015,06,25,05,44,14.40
2015,06,25,05,45,14.40
2015,06,25,05,46,14.40
2015,06,25,05,47,14.40
2015,06,25,05,48,14.40
2015,06,25,05,49,14.40
2015,06,25,05,50,14.40
2015,06,25,05,51,14.40
2015,06,25,05,52,14.40
2015,06,25,05,53,14.40
2015,06,25,05,54,14.40
2015,06,25,05,55,14.40
2015,06,25,05,56,14.40
2015,06,25,05,57,14.40
2015,06,25,05,58,14.40
2015,06,25,05,59,14.40
2015,06,25,06,00,14.40
2015,06,25,06,01,14.40
2015,06,25,06,02,14.40
2015,06,25,06,03,14.40
2015,06,25,06,04,14.40
2015,06,25,06,05,14.40
2015,06,25,06,06,14.40
2015,06,25,06,07,14.40
2015,06,25,06,08,14.40
2015,06,25,06,09,14.50
2015,06,25,06,10,14.50
2015,06,25,06,11,14.50
2015,06,25,06,12,14.50
2015,06,25,06,13,14.50
2015,06,25,06,14,14.50
2015,06,25,06,15,14.50
2015,06,25,06,16,14.50
2015,06,25,06,17,14.50
2015,06,25,06,18,14.60
2015,06,25,06,19,14.60
2015,06,25,06,20,14.60
2015,06,25,06,21,14.60
2015,06,25,06,22,14.60
2015,06,25,06,23,14.60
2015,06,25,06,24,14.60
2015,06,25,06,25,14.60
2015,06,25,06,26,14.60
2015,06,25,06,27,14.60
2015,06,25,06,28,14.60
2015,06,25,06,29,14.60
2015,06,25,06,30,14.60
2015,06,25,06,31,14.60
2015,06,25,06,32,14.60
2015,06,25,06,33,14.60
2015,06,25,06,34,14.50
2015,06,25,06,35,14.60
2015,06,25,06,36,14.60
2015,06,25,06,37,14.50
2015,06,25,06,38,14.60
2015,06,25,06,39,14.50
2015,06,25,06,40,14.50
2015,06,25,06,41,14.50
2015,06,25,06,42,14.50
2015,06,25,06,43,14.50
2015,06,25,06,44,14.50
2015,06,25,06,45,14.60
2015,06,25,06,46,14.60
2015,06,25,06,47,14.60
2015,06,25,06,48,14.60
2015,06,25,06,49,14.60
2015,06,25,06,50,14.60
2015,06,25,06,51,14.60
2015,06,25,06,52,14.60
2015,06,25,06,53,14.60
2015,06,25,06,54,14.60
2015,06,25,06,55,14.60
2015,06,25,06,56,14.60
2015,06,25,06,57,14.60
2015,06,25,06,58,14.60
2015,06,25,06,59,14.60
2015,06,25,07,00,14.70
2015,06,25,07,01,14.70
2015,06,25,07,02,14.70
2015,06,25,07,03,14.70
2015,06,25,07,04,14.70
2015,06,25,07,05,14.70
2015,06,25,07,06,14.70
2015,06,25,07,07,14.70
2015,06,25,07,08,14.80
2015,06,25,07,09,14.80
2015,06,25,07,10,14.80
2015,06,25,07,11,14.80
2015,06,25,07,12,14.80
2015,06,25,07,13,14.80
2015,06,25,07,14,14.80
2015,06,25,07,15,14.90
2015,06,25,07,16,14.90
2015,06,25,07,17,14.90
2015,06,25,07,18,15.00
2015,06,25,07,19,15.00
2015,06,25,07,20,15.10
2015,06,25,07,21,15.10
2015,06,25,07,22,15.10
2015,06,25,07,23,15.10
2015,06,25,07,24,15.20
2015,06,25,07,25,15.20
2015,06,25,07,26,15.30
2015,06,25,07,27,15.30
2015,06,25,07,28,15.30
2015,06,25,07,29,15.40
2015,06,25,07,30,15.40
2015,06,25,07,31,15.40
2015,06,25,07,32,15.50
2015,06,25,07,33,15.50
2015,06,25,07,34,15.60
2015,06,25,07,35,15.60
2015,06,25,07,36,15.70
2015,06,25,07,37,15.80
2015,06,25,07,38,15.80
2015,06,25,07,39,15.80
2015,06,25,07,40,15.90
2015,06,25,07,41,16.00
2015,06,25,07,42,16.00
2015,06,25,07,43,16.10
2015,06,25,07,44,16.20
2015,06,25,07,45,16.20
2015,06,25,07,46,16.30
2015,06,25,07,47,16.30
2015,06,25,07,48,16.30
2015,06,25,07,49,16.30
2015,06,25,07,50,16.30
2015,06,25,07,51,16.30
2015,06,25,07,52,16.40
2015,06,25,07,53,16.40
2015,06,25,07,54,16.40
2015,06,25,07,55,16.50
2015,06,25,07,56,16.50
2015,06,25,07,57,16.50
2015,06,25,07,58,16.60
2015,06,25,07,59,16.60
2015,06,25,08,00,16.60
2015,06,25,08,01,16.70
2015,06,25,08,02,16.70
2015,06,25,08,03,16.70
2015,06,25,08,04,16.80
2015,06,25,08,05,16.80
2015,06,25,08,06,16.90
2015,06,25,08,07,16.90
2015,06,25,08,08,17.00
2015,06,25,08,09,17.00
2015,06,25,08,10,17.10
2015,06,25,08,11,17.20
2015,06,25,08,12,17.20
2015,06,25,08,13,17.30
2015,06,25,08,14,17.40
2015,06,25,08,15,17.50
2015,06,25,08,16,17.50
2015,06,25,08,17,17.60
2015,06,25,08,18,17.70
2015,06,25,08,19,17.70
2015,06,25,08,20,17.80
2015,06,25,08,21,17.90
2015,06,25,08,22,18.00
2015,06,25,08,23,18.10
2015,06,25,08,24,18.20
2015,06,25,08,25,18.30
2015,06,25,08,26,18.40
2015,06,25,08,27,18.40
2015,06,25,08,28,18.50
2015,06,25,08,29,18.60
2015,06,25,08,30,18.60
2015,06,25,08,31,18.70
2015,06,25,08,32,18.70
2015,06,25,08,33,18.70
2015,06,25,08,34,18.80
2015,06,25,08,35,18.80
2015,06,25,08,36,19.00
2015,06,25,08,37,19.10
2015,06,25,08,38,19.20
2015,06,25,08,39,19.30
2015,06,25,08,40,19.40
2015,06,25,08,41,19.50
2015,06,25,08,42,19.60
2015,06,25,08,43,19.70
2015,06,25,08,44,19.70
2015,06,25,08,45,19.80
2015,06,25,08,46,19.90
2015,06,25,08,47,19.90
2015,06,25,08,48,20.00
2015,06,25,08,49,20.00
2015,06,25,08,50,20.10
2015,06,25,08,51,20.20
2015,06,25,08,52,20.20
2015,06,25,08,53,20.30
2015,06,25,08,54,20.30
2015,06,25,08,55,20.40
2015,06,25,08,56,20.50
2015,06,25,08,57,20.60
2015,06,25,08,58,20.60
2015,06,25,08,59,20.70
2015,06,25,09,00,20.80
2015,06,25,09,01,20.80
2015,06,25,09,02,20.90
2015,06,25,09,03,21.00
2015,06,25,09,04,21.10
2015,06,25,09,05,21.10
2015,06,25,09,06,21.20
2015,06,25,09,07,21.20
2015,06,25,09,08,21.20
2015,06,25,09,09,21.30
2015,06,25,09,10,21.30
2015,06,25,09,11,21.30
2015,06,25,09,12,21.30
2015,06,25,09,13,21.30
2015,06,25,09,14,21.30
2015,06,25,09,15,21.30
2015,06,25,09,16,21.40
2015,06,25,09,17,21.40
2015,06,25,09,18,21.50
2015,06,25,09,19,21.50
2015,06,25,09,20,21.60
2015,06,25,09,21,21.60
2015,06,25,09,22,21.60
2015,06,25,09,23,21.70
2015,06,25,09,24,21.70
2015,06,25,09,25,21.80
2015,06,25,09,26,21.90
2015,06,25,09,27,22.00
2015,06,25,09,28,22.10
2015,06,25,09,29,22.10
2015,06,25,09,30,22.10
2015,06,25,09,31,22.10
2015,06,25,09,32,22.20
2015,06,25,09,33,22.20
2015,06,25,09,34,22.20
2015,06,25,09,35,22.20
2015,06,25,09,36,22.20
2015,06,25,09,37,22.20
2015,06,25,09,38,22.20
2015,06,25,09,39,22.20
2015,06,25,09,40,22.30
2015,06,25,09,41,22.30
2015,06,25,09,42,22.30
2015,06,25,09,43,22.40
2015,06,25,09,44,22.40
2015,06,25,09,45,22.40
2015,06,25,09,46,22.50
2015,06,25,09,47,22.50
2015,06,25,09,48,22.50
2015,06,25,09,49,22.60
2015,06,25,09,50,22.60
2015,06,25,09,51,22.70
2015,06,25,09,52,22.70
2015,06,25,09,53,22.70
2015,06,25,09,54,22.70
2015,06,25,09,55,22.70
2015,06,25,09,56,22.70
2015,06,25,09,57,22.60
2015,06,25,09,58,22.60
2015,06,25,09,59,22.50
2015,06,25,10,00,22.40
2015,06,25,10,01,22.30
2015,06,25,10,02,22.20
2015,06,25,10,03,22.20
2015,06,25,10,04,22.10
2015,06,25,10,05,22.00
2015,06,25,10,06,21.90
2015,06,25,10,07,21.80
2015,06,25,10,08,21.80
2015,06,25,10,09,21.80
2015,06,25,10,10,21.70
2015,06,25,10,11,21.70
2015,06,25,10,12,21.70
2015,06,25,10,13,21.60
2015,06,25,10,14,21.50
2015,06,25,10,15,21.40
2015,06,25,10,16,21.40
2015,06,25,10,17,21.40
2015,06,25,10,18,21.30
2015,06,25,10,19,21.30
2015,06,25,10,20,21.40
2015,06,25,10,21,21.40
2015,06,25,10,22,21.40
2015,06,25,10,23,21.30
2015,06,25,10,24,21.30
2015,06,25,10,25,21.30
2015,06,25,10,26,21.20
2015,06,25,10,27,21.20
2015,06,25,10,28,21.20
2015,06,25,10,29,21.20
2015,06,25,10,30,21.20
2015,06,25,10,31,21.20
2015,06,25,10,32,21.20
2015,06,25,10,33,21.20
2015,06,25,10,34,21.20
2015,06,25,10,35,21.20
2015,06,25,10,36,21.20
2015,06,25,10,37,21.20
2015,06,25,10,38,21.20
2015,06,25,10,39,21.20
2015,06,25,10,40,21.20
2015,06,25,10,41,21.20
2015,06,25,10,42,21.20
2015,06,25,10,43,21.20
2015,06,25,10,44,21.20
2015,06,25,10,45,21.20
2015,06,25,10,46,21.20
2015,06,25,10,47,21.20
2015,06,25,10,48,21.20
2015,06,25,10,49,21.20
2015,06,25,10,50,21.30
2015,06,25,10,51,21.30
2015,06,25,10,52,21.40
2015,06,25,10,53,21.50
2015,06,25,10,54,21.60
2015,06,25,10,55,21.60
2015,06,25,10,56,21.70
2015,06,25,10,57,21.70
2015,06,25,10,58,21.80
2015,06,25,10,59,21.80
2015,06,25,11,00,21.80
2015,06,25,11,01,21.80
2015,06,25,11,02,21.80
2015,06,25,11,03,21.90
2015,06,25,11,04,21.90
2015,06,25,11,05,22.00
2015,06,25,11,06,22.00
2015,06,25,11,07,22.10
2015,06,25,11,08,22.20
2015,06,25,11,09,22.30
2015,06,25,11,10,22.40
2015,06,25,11,11,22.50
2015,06,25,11,12,22.70
2015,06,25,11,13,22.80
2015,06,25,11,14,22.90
2015,06,25,11,15,23.00
2015,06,25,11,16,23.00
2015,06,25,11,17,23.00
2015,06,25,11,18,23.10
2015,06,25,11,19,23.10
2015,06,25,11,20,23.20
2015,06,25,11,21,23.20
2015,06,25,11,22,23.30
2015,06,25,11,23,23.30
2015,06,25,11,24,23.30
2015,06,25,11,25,23.30
2015,06,25,11,26,23.30
2015,06,25,11,27,23.30
2015,06,25,11,28,23.30
2015,06,25,11,29,23.30
2015,06,25,11,30,23.30
2015,06,25,11,31,23.40
2015,06,25,11,32,23.40
2015,06,25,11,33,23.30
2015,06,25,11,34,23.30
2015,06,25,11,35,23.30
2015,06,25,11,36,23.20
2015,06,25,11,37,23.30
2015,06,25,11,38,23.20
2015,06,25,11,39,23.30
2015,06,25,11,40,23.30
2015,06,25,11,41,23.30
2015,06,25,11,42,23.40
2015,06,25,11,43,23.50
2015,06,25,11,44,23.60
2015,06,25,11,45,23.60
2015,06,25,11,46,23.70
2015,06,25,11,47,23.80
2015,06,25,11,48,23.90
2015,06,25,11,49,23.90
2015,06,25,11,50,23.90
2015,06,25,11,51,24.00
2015,06,25,11,52,24.00
2015,06,25,11,53,24.10
2015,06,25,11,54,24.10
2015,06,25,11,55,24.20
2015,06,25,11,56,24.30
2015,06,25,11,57,24.40
2015,06,25,11,58,24.40
2015,06,25,11,59,24.40
2015,06,25,12,00,24.50
2015,06,25,12,01,24.50
2015,06,25,12,02,24.60
2015,06,25,12,03,24.60
2015,06,25,12,04,24.60
2015,06,25,12,05,24.60
2015,06,25,12,06,24.60
2015,06,25,12,07,24.60
2015,06,25,12,08,24.60
2015,06,25,12,09,24.60
2015,06,25,12,10,24.60
2015,06,25,12,11,24.60
2015,06,25,12,12,24.60
2015,06,25,12,13,24.60
2015,06,25,12,14,24.70
2015,06,25,12,15,24.80
2015,06,25,12,16,24.90
2015,06,25,12,17,25.00
2015,06,25,12,18,25.10
2015,06,25,12,19,25.20
2015,06,25,12,20,25.20
2015,06,25,12,21,25.20
2015,06,25,12,22,25.10
2015,06,25,12,23,25.00
2015,06,25,12,24,24.90
2015,06,25,12,25,24.80
2015,06,25,12,26,24.80
2015,06,25,12,27,24.80
2015,06,25,12,28,24.80
2015,06,25,12,29,24.80
2015,06,25,12,30,24.80
2015,06,25,12,31,24.90
2015,06,25,12,32,24.90
2015,06,25,12,33,24.90
2015,06,25,12,34,24.90
2015,06,25,12,35,25.00
2015,06,25,12,36,25.00
2015,06,25,12,37,25.10
2015,06,25,12,38,25.10
2015,06,25,12,39,25.10
2015,06,25,12,40,25.10
2015,06,25,12,41,25.10
2015,06,25,12,42,25.10
2015,06,25,12,43,25.20
2015,06,25,12,44,25.20
2015,06,25,12,45,25.20
2015,06,25,12,46,25.20
2015,06,25,12,47,25.20
2015,06,25,12,48,25.20
2015,06,25,12,49,25.20
2015,06,25,12,50,25.30
2015,06,25,12,51,25.20
2015,06,25,12,52,25.20
2015,06,25,12,53,25.20
2015,06,25,12,54,25.10
2015,06,25,12,55,25.10
2015,06,25,12,56,25.10
2015,06,25,12,57,25.10
2015,06,25,12,58,25.10
2015,06,25,12,59,25.10
2015,06,25,13,00,25.20
2015,06,25,13,01,25.20
2015,06,25,13,02,25.20
2015,06,25,13,03,25.20
2015,06,25,13,04,25.20
2015,06,25,13,05,25.20
2015,06,25,13,06,25.20
2015,06,25,13,07,25.20
2015,06,25,13,08,25.20
2015,06,25,13,09,25.20
2015,06,25,13,10,25.20
2015,06,25,13,11,25.20
2015,06,25,13,12,25.30
2015,06,25,13,13,25.30
2015,06,25,13,14,25.20
2015,06,25,13,15,25.20
2015,06,25,13,16,25.20
2015,06,25,13,17,25.20
2015,06,25,13,18,25.20
2015,06,25,13,19,25.30
2015,06,25,13,20,25.20
2015,06,25,13,21,25.20
2015,06,25,13,22,25.20
2015,06,25,13,23,25.20
2015,06,25,13,24,25.30
2015,06,25,13,25,25.30
2015,06,25,13,26,25.40
2015,06,25,13,27,25.40
2015,06,25,13,28,25.30
2015,06,25,13,29,25.30
2015,06,25,13,30,25.30
2015,06,25,13,31,25.30
2015,06,25,13,32,25.30
2015,06,25,13,33,25.40
2015,06,25,13,34,25.40
2015,06,25,13,35,25.50
2015,06,25,13,36,25.60
2015,06,25,13,37,25.70
2015,06,25,13,38,25.80
2015,06,25,13,39,25.80
2015,06,25,13,40,25.70
2015,06,25,13,41,25.70
2015,06,25,13,42,25.70
2015,06,25,13,43,25.80
2015,06,25,13,44,25.90
2015,06,25,13,45,25.90
2015,06,25,13,46,25.90
2015,06,25,13,47,25.90
2015,06,25,13,48,25.90
2015,06,25,13,49,25.80
2015,06,25,13,50,25.80
2015,06,25,13,51,25.80
2015,06,25,13,52,25.90
2015,06,25,13,53,25.90
2015,06,25,13,54,26.00
2015,06,25,13,55,26.10
2015,06,25,13,56,26.20
2015,06,25,13,57,26.20
2015,06,25,13,58,26.20
2015,06,25,13,59,26.20
2015,06,25,14,00,26.20
2015,06,25,14,01,26.20
2015,06,25,14,02,26.30
2015,06,25,14,03,26.30
2015,06,25,14,04,26.50
2015,06,25,14,05,26.60
2015,06,25,14,06,26.80
2015,06,25,14,07,27.10
2015,06,25,14,08,27.20
2015,06,25,14,09,27.30
2015,06,25,14,10,27.40
2015,06,25,14,11,27.50
2015,06,25,14,12,27.50
2015,06,25,14,13,27.40
2015,06,25,14,14,27.40
2015,06,25,14,15,27.30
2015,06,25,14,16,27.30
2015,06,25,14,17,27.30
2015,06,25,14,18,27.30
2015,06,25,14,19,27.30
2015,06,25,14,20,27.40
2015,06,25,14,21,27.50
2015,06,25,14,22,27.50
2015,06,25,14,23,27.50
2015,06,25,14,24,27.60
2015,06,25,14,25,27.60
2015,06,25,14,26,27.60
2015,06,25,14,27,27.70
2015,06,25,14,28,27.80
2015,06,25,14,29,27.90
2015,06,25,14,30,27.90
2015,06,25,14,31,27.90
2015,06,25,14,32,27.90
2015,06,25,14,33,27.80
2015,06,25,14,34,27.80
2015,06,25,14,35,27.70
2015,06,25,14,36,27.60
2015,06,25,14,37,27.50
2015,06,25,14,38,27.50
2015,06,25,14,39,27.50
2015,06,25,14,40,27.40
2015,06,25,14,41,27.30
2015,06,25,14,42,27.20
2015,06,25,14,43,27.10
2015,06,25,14,44,27.00
2015,06,25,14,45,26.90
2015,06,25,14,46,26.90
2015,06,25,14,47,26.80
2015,06,25,14,48,26.90
2015,06,25,14,49,26.90
2015,06,25,14,50,26.90
2015,06,25,14,51,26.80
2015,06,25,14,52,26.70
2015,06,25,14,53,26.60
2015,06,25,14,54,26.60
2015,06,25,14,55,26.60
2015,06,25,14,56,26.50
2015,06,25,14,57,26.50
2015,06,25,14,58,26.60
2015,06,25,14,59,26.60
2015,06,25,15,00,26.70
2015,06,25,15,01,26.70
2015,06,25,15,02,26.80
2015,06,25,15,03,26.90
2015,06,25,15,04,27.00
2015,06,25,15,05,27.00
2015,06,25,15,06,27.10
2015,06,25,15,07,27.10
2015,06,25,15,08,27.10
2015,06,25,15,09,27.10
2015,06,25,15,10,27.20
2015,06,25,15,11,27.20
2015,06,25,15,12,27.30
2015,06,25,15,13,27.40
2015,06,25,15,14,27.40
2015,06,25,15,15,27.50
2015,06,25,15,16,27.50
2015,06,25,15,17,27.60
2015,06,25,15,18,27.60
2015,06,25,15,19,27.70
2015,06,25,15,20,27.80
2015,06,25,15,21,27.90
2015,06,25,15,22,27.90
2015,06,25,15,23,28.00
2015,06,25,15,24,28.10
2015,06,25,15,25,28.20
2015,06,25,15,26,28.30
2015,06,25,15,27,28.40
2015,06,25,15,28,28.50
2015,06,25,15,29,28.60
2015,06,25,15,30,28.70
2015,06,25,15,31,28.70
2015,06,25,15,32,28.80
2015,06,25,15,33,28.80
2015,06,25,15,34,28.80
2015,06,25,15,35,28.80
2015,06,25,15,36,28.80
2015,06,25,15,37,28.70
2015,06,25,15,38,28.70
2015,06,25,15,39,28.80
2015,06,25,15,40,28.70
2015,06,25,15,41,28.70
2015,06,25,15,42,28.60
2015,06,25,15,43,28.60
2015,06,25,15,44,28.50
2015,06,25,15,45,28.40
2015,06,25,15,46,28.20
2015,06,25,15,47,28.20
2015,06,25,15,48,28.20
2015,06,25,15,49,28.20
2015,06,25,15,50,28.20
2015,06,25,15,51,28.20
2015,06,25,15,52,28.20
2015,06,25,15,53,28.20
2015,06,25,15,54,28.20
2015,06,25,15,55,28.10
2015,06,25,15,56,28.10
2015,06,25,15,57,28.00
2015,06,25,15,58,28.00
2015,06,25,15,59,28.00
2015,06,25,16,00,28.10
2015,06,25,16,01,28.10
2015,06,25,16,02,28.20
2015,06,25,16,03,28.20
2015,06,25,16,04,28.30
2015,06,25,16,05,28.40
2015,06,25,16,06,28.50
2015,06,25,16,07,28.50
2015,06,25,16,08,28.40
2015,06,25,16,09,28.40
2015,06,25,16,10,28.40
2015,06,25,16,11,28.50
2015,06,25,16,12,28.60
2015,06,25,16,13,28.60
2015,06,25,16,14,28.70
2015,06,25,16,15,28.80
2015,06,25,16,16,28.80
2015,06,25,16,17,28.80
2015,06,25,16,18,28.80
2015,06,25,16,19,28.80
2015,06,25,16,20,28.80
2015,06,25,16,21,28.80
2015,06,25,16,22,28.80
2015,06,25,16,23,28.80
2015,06,25,16,24,28.90
2015,06,25,16,25,28.90
2015,06,25,16,26,28.90
2015,06,25,16,27,29.00
2015,06,25,16,28,29.00
2015,06,25,16,29,29.00
2015,06,25,16,30,29.00
2015,06,25,16,31,28.90
2015,06,25,16,32,28.90
2015,06,25,16,33,29.00
2015,06,25,16,34,29.00
2015,06,25,16,35,29.10
2015,06,25,16,36,29.10
2015,06,25,16,37,29.10
2015,06,25,16,38,29.20
2015,06,25,16,39,29.20
2015,06,25,16,40,29.20
2015,06,25,16,41,29.20
2015,06,25,16,42,29.30
2015,06,25,16,43,29.30
2015,06,25,16,44,29.30
2015,06,25,16,45,29.40
2015,06,25,16,46,29.40
2015,06,25,16,47,29.40
2015,06,25,16,48,29.40
2015,06,25,16,49,29.30
2015,06,25,16,50,29.20
2015,06,25,16,51,29.10
2015,06,25,16,52,29.00
2015,06,25,16,53,29.00
2015,06,25,16,54,28.90
2015,06,25,16,55,28.70
2015,06,25,16,56,28.60
2015,06,25,16,57,28.40
2015,06,25,16,58,28.30
2015,06,25,16,59,28.20
2015,06,25,17,00,28.20
2015,06,25,17,01,28.20
2015,06,25,17,02,28.20
2015,06,25,17,03,28.20
2015,06,25,17,04,28.10
2015,06,25,17,05,28.20
2015,06,25,17,06,28.30
2015,06,25,17,07,28.30
2015,06,25,17,08,28.30
2015,06,25,17,09,28.30
2015,06,25,17,10,28.40
2015,06,25,17,11,28.40
2015,06,25,17,12,28.50
2015,06,25,17,13,28.50
2015,06,25,17,14,28.60
2015,06,25,17,15,28.60
2015,06,25,17,16,28.70
2015,06,25,17,17,28.70
2015,06,25,17,18,28.80
2015,06,25,17,19,28.80
2015,06,25,17,20,28.90
2015,06,25,17,21,29.00
2015,06,25,17,22,29.00